Weather in Polovinka

Russia / Chelyabinsk Oblast     54°20′37″N   61°20′13″E
temp.,
°C
wind,
m/s
gust,
m/s
humid.,
%
clouds,
%
prec.,
mm/h
press.,
hPa
HPBL,
m
28 february, sun
sun2823:00−12se51195100 1.3 1011545
02:00−12se4995100 0.6 1009367
05:00−12ese3796100 0.8 1008184
08:00−13e369698 0.1 1007144
11:00−10ene459599 0.3 1005269
14:00−8ne4694100 0.4 1005352
17:00−9ne5794100 0.9 1005405
20:00−11nne5895100 0.5 1006313
1 march, mon
mon123:00−13n489597 0.8 1009256
02:00−16n479590 0.2 1011187
05:00−17n369687 0.3 1013165
08:00−18n359788 0.1 1014152
11:00−16n239388 0.2 1016255
14:00−14n228799 0.1 1017371
17:00−13ne1192100 0.1 1017104
20:00−15se119794 0.1 101820
2 march, tue
tue223:00−16sse119796 0.3 101820
02:00−17s119879 0.1 101720
05:00−17ssw119789 0.1 101620
08:00−17ssw129781 0.1 101620
11:00−14ssw239479 0.1 1015150
14:00−12s349392 0.0 1013303
17:00−13s359487 0.0 1012138
20:00−17ssw349425 0.0 101146
3 march, wed
wed323:00−15s349361 0.0 101176
02:00−12sw5108999 0.0 1009265
05:00−12ssw51190100 0.0 1009315
08:00−12ssw6119394 0.0 1007328
11:00−9ssw6119296 0.3 1006507
14:00−4s7119398 0.3 1004738
17:00−3s7129299 0.6 1003733
20:00−3s61294100 0.3 1000540
4 march, thu
thu423:00−3s61293100 0.6 999489
02:00−5ssw51094100 0.1 997296
05:00−4wsw61092100 0.6 998356
08:00−7w479298 0.1 999143
11:00−7wnw6118191 0.1 1001645
14:00−6nw7118191 0.0 1003835
17:00−6wnw5108995 0.1 1005715
20:00−8wnw41186100 0.1 1008432